VOI226 MMMY-MMGL

Flight info

Callsign VOI226
Flight time 1h 12m
Altitude 36000
Route KERGA1A KERGA UT44 MEZCA MEZCA1B
Aircraft A321/M-SDE3FGHIRWY/LB1

Departure

Time 2026-04-22 02:11
Airport Monterrey International Airport (MMMY)

Arrival

Time 2026-04-22 03:24
Airport Guadalajara International Airport (MMGL)
Time Latitude Longitude Altitude Speed Heading
2026-04-22 01:46 25.77905 -100.11391 1277 ft 0 kts 211°
2026-04-22 02:02 25.77919 -100.11382 1279 ft 4 kts 211°
2026-04-22 02:02 25.77942 -100.11366 1280 ft 4 kts 213°
2026-04-22 02:02 25.77963 -100.11348 1280 ft 4 kts 233°
2026-04-22 02:02 25.77973 -100.11323 1277 ft 4 kts 278°
2026-04-22 02:03 25.77969 -100.11309 1278 ft 1 kts 301°
2026-04-22 02:03 25.77968 -100.11307 1278 ft 0 kts 301°
2026-04-22 02:06 25.77970 -100.11311 1277 ft 2 kts 301°
2026-04-22 02:06 25.77985 -100.11337 1275 ft 6 kts 301°
2026-04-22 02:06 25.78020 -100.11401 1279 ft 13 kts 302°
2026-04-22 02:07 25.78067 -100.11485 1280 ft 13 kts 301°
2026-04-22 02:07 25.78113 -100.11570 1282 ft 13 kts 301°
2026-04-22 02:07 25.78161 -100.11657 1283 ft 13 kts 301°
2026-04-22 02:07 25.78207 -100.11743 1285 ft 11 kts 300°
2026-04-22 02:08 25.78245 -100.11796 1289 ft 7 kts 329°
2026-04-22 02:08 25.78284 -100.11795 1287 ft 0 kts 21°
2026-04-22 02:08 25.78286 -100.11795 1287 ft 0 kts 21°
2026-04-22 02:08 25.78289 -100.11793 1287 ft 1 kts 21°
2026-04-22 02:09 25.78295 -100.11790 1287 ft 1 kts 21°
2026-04-22 02:09 25.78303 -100.11786 1287 ft 2 kts 26°
2026-04-22 02:09 25.78335 -100.11767 1288 ft 6 kts 29°
2026-04-22 02:09 25.78374 -100.11740 1289 ft 6 kts 34°
2026-04-22 02:10 25.78399 -100.11700 1288 ft 7 kts 82°
2026-04-22 02:10 25.78388 -100.11661 1288 ft 0 kts 118°
2026-04-22 02:10 25.78384 -100.11654 1288 ft 5 kts 118°
2026-04-22 02:10 25.78248 -100.11402 1282 ft 78 kts 121°
2026-04-22 02:11 25.77827 -100.10640 1271 ft 149 kts 121°
2026-04-22 02:11 25.77211 -100.09525 1534 ft 183 kts 121°
2026-04-22 02:11 25.76508 -100.08283 2246 ft 199 kts 122°
2026-04-22 02:11 25.75718 -100.06884 2885 ft 223 kts 122°
2026-04-22 02:12 25.74882 -100.05357 3486 ft 241 kts 122°
2026-04-22 02:12 25.73994 -100.03727 3967 ft 257 kts 122°
2026-04-22 02:12 25.73045 -100.01992 4791 ft 262 kts 122°
2026-04-22 02:12 25.72072 -100.00273 5569 ft 265 kts 128°
2026-04-22 02:13 25.70688 -99.98911 6266 ft 272 kts 152°
2026-04-22 02:13 25.68858 -99.98330 6908 ft 279 kts 177°
2026-04-22 02:13 25.66895 -99.98357 7578 ft 284 kts 181°
2026-04-22 02:13 25.64908 -99.98422 8258 ft 288 kts 182°
2026-04-22 02:14 25.62913 -99.98493 8928 ft 292 kts 183°
2026-04-22 02:14 25.60842 -99.98565 9605 ft 296 kts 184°
2026-04-22 02:14 25.58762 -99.98633 10196 ft 303 kts 183°
2026-04-22 02:14 25.56576 -99.98701 10346 ft 325 kts 184°
2026-04-22 02:15 25.54239 -99.98773 10511 ft 345 kts 183°
2026-04-22 02:15 25.51816 -99.98842 10960 ft 352 kts 184°
2026-04-22 02:15 25.49350 -99.98911 11545 ft 355 kts 184°
2026-04-22 02:15 25.46873 -99.98982 12137 ft 358 kts 184°
2026-04-22 02:16 25.44371 -99.99051 12751 ft 361 kts 185°
2026-04-22 02:16 25.41852 -99.99119 13377 ft 364 kts 185°
2026-04-22 02:16 25.39313 -99.99188 13984 ft 366 kts 185°
2026-04-22 02:16 25.36741 -99.99262 14534 ft 369 kts 185°
2026-04-22 02:17 25.34182 -99.99336 15102 ft 371 kts 186°
2026-04-22 02:17 25.31595 -99.99412 15669 ft 373 kts 186°
2026-04-22 02:17 25.28996 -99.99488 16254 ft 375 kts 186°
2026-04-22 02:17 25.26383 -99.99562 16829 ft 376 kts 186°
2026-04-22 02:18 25.23757 -99.99638 17391 ft 379 kts 186°
2026-04-22 02:18 25.21114 -99.99715 17962 ft 381 kts 186°
2026-04-22 02:18 25.18455 -99.99791 18508 ft 384 kts 186°
2026-04-22 02:18 25.15799 -99.99868 19008 ft 387 kts 186°
2026-04-22 02:19 25.13073 -99.99945 19522 ft 389 kts 187°
2026-04-22 02:19 25.10352 -100.00022 19994 ft 394 kts 187°
2026-04-22 02:19 25.07604 -100.00100 20550 ft 397 kts 187°
2026-04-22 02:19 25.04834 -100.00180 21081 ft 400 kts 187°
2026-04-22 02:20 25.02040 -100.00261 21569 ft 403 kts 187°
2026-04-22 02:20 24.99227 -100.00343 22032 ft 407 kts 187°
2026-04-22 02:20 24.96399 -100.00576 22544 ft 406 kts 195°
2026-04-22 02:20 24.93689 -100.01343 23054 ft 401 kts 206°
2026-04-22 02:21 24.91173 -100.02638 23548 ft 398 kts 216°
2026-04-22 02:21 24.88794 -100.04207 23984 ft 400 kts 216°
2026-04-22 02:21 24.86398 -100.05780 24390 ft 402 kts 216°
2026-04-22 02:21 24.83986 -100.07357 24767 ft 404 kts 216°
2026-04-22 02:22 24.82382 -100.08401 25071 ft 405 kts 216°
2026-04-22 02:22 24.79950 -100.09983 25499 ft 407 kts 216°
2026-04-22 02:22 24.76714 -100.12085 26059 ft 409 kts 216°
2026-04-22 02:22 24.75061 -100.13159 26325 ft 410 kts 216°
2026-04-22 02:23 24.72580 -100.14774 26740 ft 412 kts 216°
2026-04-22 02:23 24.70130 -100.16371 27149 ft 414 kts 216°
2026-04-22 02:23 24.67647 -100.17991 27552 ft 415 kts 216°
2026-04-22 02:23 24.65158 -100.19616 27942 ft 418 kts 216°
2026-04-22 02:24 24.62650 -100.21250 28330 ft 420 kts 216°
2026-04-22 02:24 24.60123 -100.22893 28691 ft 423 kts 216°
2026-04-22 02:24 24.57590 -100.24535 29144 ft 423 kts 216°
2026-04-22 02:24 24.55061 -100.26172 29693 ft 421 kts 216°
2026-04-22 02:25 24.53416 -100.27237 30055 ft 420 kts 216°
2026-04-22 02:25 24.50906 -100.28860 30524 ft 417 kts 216°
2026-04-22 02:25 24.48413 -100.30473 30974 ft 415 kts 216°
2026-04-22 02:25 24.45933 -100.32080 31449 ft 413 kts 216°
2026-04-22 02:26 24.43464 -100.33682 31888 ft 411 kts 216°
2026-04-22 02:26 24.41012 -100.35272 32310 ft 409 kts 216°
2026-04-22 02:26 24.38573 -100.36852 32731 ft 407 kts 216°
2026-04-22 02:26 24.36141 -100.38426 33153 ft 405 kts 216°
2026-04-22 02:27 24.33721 -100.39991 33572 ft 403 kts 216°
2026-04-22 02:27 24.31315 -100.41549 33984 ft 401 kts 217°
2026-04-22 02:27 24.28915 -100.43100 34299 ft 399 kts 216°
2026-04-22 02:27 24.26522 -100.44645 34594 ft 398 kts 216°
2026-04-22 02:28 24.24140 -100.46182 34889 ft 397 kts 216°
2026-04-22 02:28 24.21767 -100.47711 35171 ft 396 kts 216°
2026-04-22 02:28 24.19398 -100.49237 35441 ft 395 kts 216°
2026-04-22 02:28 24.17039 -100.50760 35704 ft 393 kts 216°
2026-04-22 02:29 24.14684 -100.52283 35892 ft 393 kts 216°
2026-04-22 02:29 24.09936 -100.55356 35949 ft 402 kts 216°
2026-04-22 02:30 24.05074 -100.58485 35937 ft 407 kts 216°
2026-04-22 02:30 24.00188 -100.61617 35912 ft 407 kts 216°
2026-04-22 02:31 23.95299 -100.64755 35930 ft 407 kts 216°
2026-04-22 02:31 23.90411 -100.67888 35933 ft 408 kts 216°
2026-04-22 02:32 23.85519 -100.71025 35931 ft 408 kts 216°
2026-04-22 02:32 23.80617 -100.74168 35937 ft 408 kts 216°
2026-04-22 02:33 23.75722 -100.77306 35928 ft 408 kts 216°
2026-04-22 02:33 23.70820 -100.80438 35934 ft 409 kts 216°
2026-04-22 02:34 23.65904 -100.83569 35922 ft 409 kts 215°
2026-04-22 02:34 23.60997 -100.86700 35935 ft 409 kts 215°
2026-04-22 02:35 23.56091 -100.89834 35948 ft 408 kts 215°
2026-04-22 02:35 23.51205 -100.92975 35953 ft 407 kts 218°
2026-04-22 02:36 23.46642 -100.96569 35965 ft 404 kts 220°
2026-04-22 02:36 23.42096 -101.00183 35965 ft 404 kts 220°
2026-04-22 02:37 23.37552 -101.03791 35965 ft 404 kts 220°
2026-04-22 02:37 23.33004 -101.07391 35951 ft 405 kts 220°
2026-04-22 02:38 23.28444 -101.10987 35958 ft 405 kts 220°
2026-04-22 02:38 23.23883 -101.14596 35963 ft 406 kts 220°
2026-04-22 02:39 23.19317 -101.18214 35974 ft 406 kts 220°
2026-04-22 02:39 23.14751 -101.21826 35978 ft 406 kts 220°
2026-04-22 02:40 23.10215 -101.25411 35984 ft 406 kts 220°
2026-04-22 02:40 23.05642 -101.29017 35986 ft 406 kts 220°
2026-04-22 02:41 23.01065 -101.32621 35957 ft 406 kts 220°
2026-04-22 02:41 22.96496 -101.36222 35957 ft 407 kts 219°
2026-04-22 02:42 22.91909 -101.39833 35968 ft 407 kts 219°
2026-04-22 02:42 22.87319 -101.43434 35973 ft 407 kts 219°
2026-04-22 02:43 22.82730 -101.47034 35961 ft 408 kts 219°
2026-04-22 02:43 22.78133 -101.50637 35968 ft 408 kts 219°
2026-04-22 02:44 22.73538 -101.54239 35972 ft 408 kts 219°
2026-04-22 02:44 22.68942 -101.57836 35972 ft 408 kts 219°
2026-04-22 02:45 22.64348 -101.61439 35933 ft 408 kts 219°
2026-04-22 02:45 22.59737 -101.65051 35938 ft 410 kts 219°
2026-04-22 02:46 22.55111 -101.68661 35973 ft 410 kts 219°
2026-04-22 02:46 22.50482 -101.72264 35975 ft 410 kts 219°
2026-04-22 02:47 22.45862 -101.75868 35960 ft 409 kts 220°
2026-04-22 02:47 22.41242 -101.79470 35958 ft 409 kts 220°
2026-04-22 02:48 22.36633 -101.83067 35958 ft 409 kts 220°
2026-04-22 02:48 22.32016 -101.86664 35937 ft 409 kts 219°
2026-04-22 02:49 22.27384 -101.90252 35929 ft 410 kts 219°
2026-04-22 02:49 22.22747 -101.93849 35939 ft 411 kts 219°
2026-04-22 02:50 22.18097 -101.97454 35942 ft 411 kts 219°
2026-04-22 02:50 22.13454 -102.01062 35949 ft 412 kts 219°
2026-04-22 02:51 22.08799 -102.04669 35951 ft 412 kts 219°
2026-04-22 02:51 22.04140 -102.08267 35946 ft 412 kts 219°
2026-04-22 02:52 21.99476 -102.11866 35932 ft 413 kts 219°
2026-04-22 02:52 21.94798 -102.15470 35937 ft 414 kts 218°
2026-04-22 02:53 21.90016 -102.18876 35943 ft 408 kts 216°
2026-04-22 02:53 21.87615 -102.20512 35199 ft 413 kts 216°
2026-04-22 02:53 21.85140 -102.22199 34133 ft 426 kts 217°
2026-04-22 02:53 21.82631 -102.23915 33532 ft 425 kts 217°
2026-04-22 02:54 21.80162 -102.25613 33090 ft 420 kts 217°
2026-04-22 02:54 21.77715 -102.27306 32905 ft 416 kts 217°
2026-04-22 02:54 21.75298 -102.28986 32425 ft 412 kts 217°
2026-04-22 02:54 21.72898 -102.30657 31961 ft 409 kts 218°
2026-04-22 02:55 21.70559 -102.32369 31451 ft 404 kts 223°
2026-04-22 02:55 21.68359 -102.34239 30964 ft 401 kts 223°
2026-04-22 02:55 21.66172 -102.36094 30462 ft 400 kts 223°
2026-04-22 02:55 21.63989 -102.37938 29938 ft 398 kts 223°
2026-04-22 02:56 21.61820 -102.39765 29448 ft 395 kts 222°
2026-04-22 02:56 21.59670 -102.41575 28945 ft 392 kts 222°
2026-04-22 02:56 21.57531 -102.43375 28469 ft 389 kts 222°
2026-04-22 02:56 21.55403 -102.45166 27995 ft 387 kts 222°
2026-04-22 02:57 21.53292 -102.46941 27536 ft 385 kts 222°
2026-04-22 02:57 21.51187 -102.48713 27085 ft 383 kts 222°
2026-04-22 02:57 21.49092 -102.50476 26635 ft 382 kts 222°
2026-04-22 02:57 21.47000 -102.52238 26193 ft 381 kts 222°
2026-04-22 02:58 21.44913 -102.53994 25754 ft 381 kts 222°
2026-04-22 02:58 21.42829 -102.55746 25294 ft 381 kts 221°
2026-04-22 02:58 21.40744 -102.57497 24851 ft 381 kts 221°
2026-04-22 02:58 21.38652 -102.59252 24398 ft 382 kts 221°
2026-04-22 02:59 21.36561 -102.61005 23982 ft 381 kts 221°
2026-04-22 02:59 21.34493 -102.62740 23828 ft 373 kts 221°
2026-04-22 02:59 21.32471 -102.64429 23578 ft 367 kts 221°
2026-04-22 02:59 21.30425 -102.66145 22638 ft 378 kts 220°
2026-04-22 03:00 21.28343 -102.67899 21978 ft 383 kts 220°
2026-04-22 03:00 21.26244 -102.69663 21477 ft 383 kts 220°
2026-04-22 03:00 21.24148 -102.71419 20986 ft 382 kts 220°
2026-04-22 03:00 21.22058 -102.73165 20484 ft 381 kts 220°
2026-04-22 03:01 21.19980 -102.74907 20073 ft 378 kts 220°
2026-04-22 03:01 21.17877 -102.76671 19604 ft 377 kts 220°
2026-04-22 03:01 21.15823 -102.78386 19219 ft 373 kts 219°
2026-04-22 03:01 21.13697 -102.79971 18798 ft 373 kts 209°
2026-04-22 03:02 21.11279 -102.80954 18362 ft 373 kts 194°
2026-04-22 03:02 21.08732 -102.81220 17882 ft 374 kts 179°
2026-04-22 03:02 21.06117 -102.80889 17409 ft 372 kts 173°
2026-04-22 03:02 21.03591 -102.80511 16947 ft 371 kts 173°
2026-04-22 03:03 21.01870 -102.80255 16635 ft 369 kts 173°
2026-04-22 03:03 20.99338 -102.79881 16202 ft 366 kts 173°
2026-04-22 03:03 20.96010 -102.79388 15655 ft 363 kts 173°
2026-04-22 03:03 20.93524 -102.78999 15227 ft 360 kts 172°
2026-04-22 03:04 20.91054 -102.78597 14833 ft 357 kts 172°
2026-04-22 03:04 20.88606 -102.78194 14433 ft 355 kts 172°
2026-04-22 03:04 20.86963 -102.77925 14162 ft 353 kts 172°
2026-04-22 03:04 20.84539 -102.77532 13742 ft 351 kts 172°
2026-04-22 03:05 20.81354 -102.77019 13163 ft 348 kts 172°
2026-04-22 03:05 20.79746 -102.76760 12890 ft 345 kts 172°
2026-04-22 03:05 20.77407 -102.76384 12825 ft 332 kts 172°
2026-04-22 03:05 20.75167 -102.76023 12833 ft 319 kts 172°
2026-04-22 03:06 20.73025 -102.75670 12842 ft 305 kts 169°
2026-04-22 03:06 20.71059 -102.74970 12845 ft 294 kts 153°
2026-04-22 03:06 20.69358 -102.73784 12845 ft 292 kts 143°
2026-04-22 03:06 20.67758 -102.72500 12844 ft 292 kts 143°
2026-04-22 03:07 20.66125 -102.71197 12842 ft 294 kts 143°
2026-04-22 03:07 20.64480 -102.69889 12844 ft 296 kts 144°
2026-04-22 03:07 20.62829 -102.68577 12840 ft 295 kts 144°
2026-04-22 03:07 20.61185 -102.67274 12844 ft 294 kts 143°
2026-04-22 03:08 20.59540 -102.65970 12844 ft 294 kts 143°
2026-04-22 03:08 20.57897 -102.64660 12843 ft 295 kts 143°
2026-04-22 03:08 20.56246 -102.63351 12845 ft 295 kts 146°
2026-04-22 03:08 20.54447 -102.62344 12852 ft 292 kts 161°
2026-04-22 03:09 20.52476 -102.61869 12849 ft 291 kts 175°
2026-04-22 03:09 20.50455 -102.61620 12852 ft 292 kts 175°
2026-04-22 03:09 20.48437 -102.61369 12849 ft 293 kts 174°
2026-04-22 03:09 20.46412 -102.61115 12854 ft 292 kts 174°
2026-04-22 03:10 20.44395 -102.60860 12854 ft 291 kts 174°
2026-04-22 03:10 20.42379 -102.60604 12854 ft 292 kts 174°
2026-04-22 03:10 20.40358 -102.60347 12852 ft 293 kts 174°
2026-04-22 03:10 20.38336 -102.60089 12855 ft 292 kts 174°
2026-04-22 03:11 20.36315 -102.59831 12856 ft 292 kts 175°
2026-04-22 03:11 20.34292 -102.59821 12846 ft 290 kts 189°
2026-04-22 03:11 20.32383 -102.60457 12609 ft 286 kts 212°
2026-04-22 03:11 20.30868 -102.61781 12296 ft 280 kts 234°
2026-04-22 03:12 20.29963 -102.63580 11977 ft 275 kts 256°
2026-04-22 03:12 20.30178 -102.67438 11650 ft 256 kts 288°
2026-04-22 03:12 20.30689 -102.69240 11410 ft 253 kts 288°
2026-04-22 03:13 20.31197 -102.71031 11053 ft 255 kts 287°
2026-04-22 03:13 20.31712 -102.72856 10772 ft 254 kts 287°
2026-04-22 03:13 20.32213 -102.74637 10580 ft 249 kts 287°
2026-04-22 03:13 20.32711 -102.76399 10325 ft 247 kts 287°
2026-04-22 03:14 20.33203 -102.78145 10045 ft 246 kts 287°
2026-04-22 03:14 20.33690 -102.79890 9790 ft 244 kts 287°
2026-04-22 03:14 20.34173 -102.81617 9500 ft 242 kts 287°
2026-04-22 03:14 20.34655 -102.83334 9216 ft 241 kts 287°
2026-04-22 03:15 20.35134 -102.85036 8960 ft 239 kts 287°
2026-04-22 03:15 20.35609 -102.86723 8850 ft 238 kts 287°
2026-04-22 03:15 20.36085 -102.88411 8848 ft 239 kts 287°
2026-04-22 03:15 20.36562 -102.90107 8850 ft 239 kts 287°
2026-04-22 03:16 20.37037 -102.91799 8853 ft 238 kts 287°
2026-04-22 03:16 20.37514 -102.93495 8852 ft 239 kts 287°
2026-04-22 03:16 20.37988 -102.95183 8852 ft 239 kts 287°
2026-04-22 03:16 20.38464 -102.96882 8852 ft 238 kts 287°
2026-04-22 03:17 20.38934 -102.98573 8841 ft 238 kts 284°
2026-04-22 03:17 20.39312 -103.00291 8843 ft 238 kts 287°
2026-04-22 03:17 20.39870 -103.01900 8839 ft 228 kts 293°
2026-04-22 03:17 20.40493 -103.03386 8868 ft 210 kts 294°
2026-04-22 03:18 20.41071 -103.04741 8835 ft 191 kts 294°
2026-04-22 03:18 20.41576 -103.05934 8841 ft 166 kts 294°
2026-04-22 03:18 20.42047 -103.07048 8801 ft 160 kts 294°
2026-04-22 03:18 20.42503 -103.08129 8662 ft 159 kts 294°
2026-04-22 03:19 20.42956 -103.09201 8496 ft 158 kts 293°
2026-04-22 03:19 20.43399 -103.10250 8308 ft 157 kts 293°
2026-04-22 03:19 20.43851 -103.11322 8130 ft 156 kts 293°
2026-04-22 03:19 20.44289 -103.12362 7944 ft 156 kts 293°
2026-04-22 03:20 20.44734 -103.13415 7884 ft 156 kts 293°
2026-04-22 03:20 20.45179 -103.14473 7706 ft 156 kts 294°
2026-04-22 03:20 20.45621 -103.15520 7536 ft 155 kts 293°
2026-04-22 03:20 20.46060 -103.16562 7361 ft 154 kts 292°
2026-04-22 03:21 20.46500 -103.17605 7198 ft 154 kts 292°
2026-04-22 03:21 20.46939 -103.18647 7023 ft 154 kts 292°
2026-04-22 03:21 20.47375 -103.19684 6856 ft 153 kts 292°
2026-04-22 03:21 20.47810 -103.20715 6691 ft 152 kts 292°
2026-04-22 03:22 20.48243 -103.21745 6511 ft 153 kts 292°
2026-04-22 03:22 20.48678 -103.22777 6334 ft 152 kts 292°
2026-04-22 03:22 20.49112 -103.23809 6171 ft 152 kts 291°
2026-04-22 03:22 20.49545 -103.24838 6001 ft 153 kts 292°
2026-04-22 03:23 20.49978 -103.25866 5804 ft 151 kts 292°
2026-04-22 03:23 20.50406 -103.26884 5598 ft 150 kts 292°
2026-04-22 03:23 20.50830 -103.27893 5381 ft 149 kts 290°
2026-04-22 03:23 20.51255 -103.28902 5157 ft 149 kts 291°
2026-04-22 03:24 20.51675 -103.29897 5030 ft 139 kts 292°
2026-04-22 03:24 20.51966 -103.30599 5019 ft 39 kts 294°
2026-04-22 03:24 20.52072 -103.30773 5021 ft 27 kts 314°
2026-04-22 03:24 20.52199 -103.30884 5021 ft 21 kts 324°
2026-04-22 03:25 20.52271 -103.30940 5018 ft 0 kts 323°
2026-04-22 03:25 20.52274 -103.30942 5018 ft 1 kts 323°
2026-04-22 03:25 20.52285 -103.30951 5018 ft 3 kts 323°
2026-04-22 03:25 20.52315 -103.30973 5022 ft 7 kts 327°
2026-04-22 03:26 20.52356 -103.30998 5022 ft 8 kts 339°
2026-04-22 03:26 20.52415 -103.31044 5019 ft 12 kts 302°
2026-04-22 03:26 20.52450 -103.31130 5020 ft 13 kts 301°
2026-04-22 03:26 20.52498 -103.31208 5020 ft 13 kts 298°
2026-04-22 03:27 20.52539 -103.31294 5019 ft 13 kts 296°
2026-04-22 03:27 20.52555 -103.31327 5021 ft 1 kts 297°
2026-04-22 03:27 20.52560 -103.31337 5021 ft 3 kts 297°
2026-04-22 03:27 20.52563 -103.31344 5020 ft 2 kts 297°
2026-04-22 03:28 20.52569 -103.31358 5020 ft 2 kts 296°
2026-04-22 03:28 20.52574 -103.31368 5020 ft 0 kts 297°
2026-04-22 03:28 20.52576 -103.31372 5020 ft 0 kts 297°
2026-04-22 03:29 20.52583 -103.31380 5020 ft 1 kts 314°
2026-04-22 03:29 20.52597 -103.31385 5020 ft 0 kts 349°
2026-04-22 03:29 20.52598 -103.31385 5020 ft 0 kts 354°
2026-04-22 03:29 20.52605 -103.31385 5020 ft 1 kts
2026-04-22 03:30 20.52618 -103.31381 5020 ft 2 kts 15°
2026-04-22 03:30 20.52636 -103.31374 5020 ft 4 kts 22°
2026-04-22 03:30 20.52670 -103.31353 5020 ft 6 kts 39°
2026-04-22 03:30 20.52690 -103.31288 5020 ft 15 kts 97°
2026-04-22 03:31 20.52647 -103.31176 5018 ft 18 kts 113°
2026-04-22 03:31 20.52590 -103.31040 5020 ft 23 kts 113°
2026-04-22 03:31 20.52515 -103.30876 5020 ft 25 kts 119°
2026-04-22 03:31 20.52506 -103.30711 5020 ft 16 kts 70°
2026-04-22 03:32 20.52510 -103.30604 5016 ft 13 kts 119°
2026-04-22 03:32 20.52459 -103.30538 5017 ft 7 kts 128°
2026-04-22 03:32 20.52431 -103.30494 5020 ft 7 kts 114°
2026-04-22 03:32 20.52424 -103.30446 5019 ft 7 kts 78°
2026-04-22 03:33 20.52456 -103.30403 5020 ft 8 kts 54°
2026-04-22 03:33 20.52454 -103.30346 5014 ft 8 kts 105°
2026-04-22 03:33 20.52435 -103.30284 5019 ft 9 kts 110°
2026-04-22 03:33 20.52423 -103.30252 5018 ft 1 kts 112°
2026-04-22 03:34 20.52413 -103.30224 5017 ft 6 kts 111°
2026-04-22 03:34 20.52398 -103.30181 5020 ft 7 kts 109°
2026-04-22 03:34 20.52383 -103.30128 5017 ft 8 kts 107°
2026-04-22 03:34 20.52366 -103.30077 5018 ft 6 kts 112°
2026-04-22 03:35 20.52380 -103.30044 5017 ft 6 kts 31°
2026-04-22 03:35 20.52399 -103.30037 5020 ft 2 kts 18°
2026-04-22 03:35 20.52408 -103.30034 5017 ft 1 kts 18°
2026-04-22 03:35 20.52414 -103.30032 5020 ft 0 kts 18°